Weather in Kamenyuky

Belarus     52°33′30″N   23°47′46″E
temp.,
°C
wind,
m/s
gust,
m/s
humid.,
%
clouds,
%
prec.,
mm/h
press.,
hPa
HPBL,
m
8 march, mon
mon800:00−1nw4984100 1.9 1012876
03:00−3wnw4108386 1.9 1013554
06:00−4wnw511873 0.0 1012487
09:00−3wnw612782 0.0 1014838
12:00−1nnw6107282 0.4 10151395
15:000nw685653 0.4 10161213
18:000nw59630 0.0 10171357
21:00−2nw398046 0.1 1018717
9 march, tue
tue900:00−3nnw378574 0.1 1020405
03:00−4n258745 0.1 1021388
06:00−4nnw25810 0.0 1021571
09:00−4n247631 0.0 1023507
12:00−2nne2253100 0.0 1023878
15:00−1se114497 0.0 10241236
18:00−1ssw1145100 0.0 10231036
21:00−2sse1256100 0.0 102481
10 march, wed
wed1000:00−3sse2461100 0.0 1025278
03:00−3sse2462100 0.0 1024405
06:00−4se236971 0.0 1024125
09:00−4se236946 0.0 1024156
12:00−1se22492 0.0 1025824
15:00+1sse22411 0.0 10241375
18:000se11410 0.0 10241265
21:00−2se22510 0.0 102538
11 march, thu
thu1100:00−2se23550 0.0 102692
03:00−2sse24590 0.0 1026135
06:00−3sse35630 0.0 1025170
09:00−2sse48630 0.0 1024405
12:00+1sse695413 0.0 10221042
15:00+2s7115654 0.0 10191115
18:00+2sse71259100 0.0 1015962
21:00+1s71465100 0.1 1013901
12 march, fri
fri1200:000s81598100 2.1 1010786
03:00+2ssw71397100 4.4 1006445
06:00+3sw61492100 1.4 1004541
09:00+3wsw61494100 1.5 1006524
12:00+4wsw6129195 0.1 1007778
15:00+5w6118498 0.3 1008955
18:00+5w4118150 0.3 1009719
21:00+1wsw498725 0.3 1011187